Retour au catalogue

STARLINK-3797

ActifCommunicationsVLEO
NORAD 52337·PAYLOAD·🇺🇸 United States

Lancé Apr 29, 2022 depuis Cape Canaveral Space Force Station

Loading…

Prochains Passages (prochaines 24 heures)

TLE

FraisSource: CelesTrak SupGP

Époque: Sep 14, 2026, 20:26 UTC

1 52337C 22045G   26257.85187500  .00734170  00000+0  22972-1 0  2570
2 52337  53.1610  77.9153 0001290  84.8028  19.4297 15.32209016    14

Suivez STARLINK-3797 en temps réel avec AllMySat

Download on the App Store